Dewpoint
-8 -5 -1 1 2 2 4 6 8 14 14 15 14 14 15 14 14 13 12 12 10 11 12 13 14 13 13 14 15 15 15 16 16 16 15 15 15 15 15 15 13 12 14 12
-6 -6 -4 -1 -0 3 4 5 8 14 14 14 14 14 12 14 13 13 12 14 11 10 11 13 14 13 13 14 15 16 16 15 16 16 15 15 15 15 15 15 15 15 15 12
-8 -5 -3 -1 0 2 3 4 5 10 14 13 13 14 14 14 14 14 13 13 12 10 11 12 13 14 14 14 14 15 16 16 14 16 15 15 15 15 15 15 15 15 14 14
-5 -5 -3 -2 -1 -1 1 2 3 12 12 12 13 11 14 14 15 14 13 13 13 10 11 11 13 14 13 14 15 15 16 15 14 13 16 13 14 14 15 15 15 16 16 15
-4 -5 -4 -4 -5 -5 -3 2 4 10 11 11 13 13 8 12 16 15 14 13 12 10 10 11 12 13 13 14 15 15 16 14 16 13 15 14 15 14 15 15 16 15 15 16
-5 -7 -6 -6 -4 -5 1 5 9 11 11 11 7 12 9 14 13 13 13 13 12 11 10 11 11 12 13 14 15 15 16 13 14 13 13 14 15 15 15 15 15 15 15 15
-5 -6 -8 -5 -1 -1 4 4 7 8 9 7 11 11 10 9 10 10 11 12 12 12 11 11 12 12 13 14 14 15 16 15 15 14 14 14 15 15 16 15 15 14 16 16
-3 -2 -4 -1 -1 1 3 1 1 5 3 4 12 11 8 9 8 9 11 12 12 11 11 11 11 12 13 14 15 15 15 16 16 16 15 16 15 14 15 14 15 15 15 14
-3 -3 -2 2 2 3 3 7 0 2 1 5 4 8 8 8 8 8 9 9 10 10 11 11 11 13 14 14 15 15 15 16 16 16 16 16 15 13 16 16 15 16 15 14
-1 -0 -3 1 5 6 7 5 5 3 7 7 3 7 8 8 9 9 10 11 11 11 11 12 11 12 14 14 15 15 15 15 15 15 16 16 16 15 16 16 14 16 16 14
-1 -1 -0 -0 4 1 6 8 6 4 5 6 8 6 6 8 10 10 10 11 12 13 13 12 12 13 14 14 14 15 15 15 16 16 16 16 16 16 16 16 16 15 13 14
-2 -2 -0 -2 -2 -2 -2 3 3 5 6 6 5 12 9 10 10 9 10 12 12 14 14 13 13 14 14 14 14 15 15 16 16 16 16 16 16 16 16 14 16 15 14 14
-3 -3 0 -1 -2 0 1 3 4 3 4 12 7 7 7 11 10 11 12 13 14 13 14 13 13 15 15 14 15 15 16 16 16 16 16 16 16 15 16 16 16 16 15 15
-0 -6 -5 -2 -0 5 6 6 6 5 4 2 3 4 2 12 13 12 12 13 14 14 14 14 12 13 13 12 13 15 16 16 16 16 16 16 16 16 15 16 16 16 13 13
-0 0 -3 -4 -4 2 4 5 6 6 5 6 1 4 5 12 14 14 13 13 13 14 14 15 13 12 13 12 12 15 16 17 17 15 17 16 16 16 15 16 16 16 15 15
1 3 1 0 -2 1 3 3 4 6 7 7 8 7 12 12 14 15 13 14 13 14 14 14 15 13 14 12 13 13 16 17 14 13 13 16 14 13 13 15 15 15 15 14
2 2 4 3 -0 1 2 1 3 4 5 6 8 9 10 13 14 15 14 14 14 15 15 15 16 16 15 14 14 14 15 16 14 14 14 15 15 15 14 14 15 15 14 14
2 3 2 4 6 10 1 2 2 3 3 4 5 8 12 14 14 14 15 15 15 16 16 16 16 16 15 15 15 15 14 14 14 14 14 15 15 15 15 15 15 14 14 15
-1 2 3 6 6 3 2 4 6 6 4 2 4 10 13 14 14 14 13 13 14 14 15 15 14 15 15 14 15 14 14 13 14 14 14 14 14 14 14 14 15 15 14 15
0 4 5 3 8 7 7 5 5 4 7 3 5 11 13 13 14 14 12 13 13 14 14 14 14 15 15 14 15 14 13 13 13 13 12 14 15 15 15 15 15 15 15 15
4 5 4 4 7 4 3 5 5 9 9 9 10 12 13 14 13 12 12 12 12 13 13 14 14 14 14 14 15 15 15 15 14 14 14 14 14 15 15 15 14 13 14 14
5 6 6 5 8 8 3 5 8 8 9 11 12 13 13 13 12 12 12 12 13 13 13 13 14 14 14 14 14 15 15 15 15 14 15 14 14 14 13 13 14 14 14 12
8 4 7 5 6 7 7 6 7 8 10 12 13 13 13 11 11 12 12 12 12 12 13 13 13 13 13 13 14 14 14 14 15 15 14 14 14 13 13 13 11 11 12 11
5 6 5 6 6 6 7 7 7 10 11 12 13 12 11 11 10 9 12 12 12 12 12 12 13 13 13 13 13 13 13 13 14 14 13 13 13 12 11 11 13 13 11 12
4 6 4 3 4 7 7 9 10 10 12 12 11 10 10 10 12 12 12 12 12 11 10 11 10 10 9 9 9 9 10 11 12 12 12 12 12 13 12 11 12 13 12 12
4 3 2 2 2 7 6 8 10 11 11 11 10 10 9 10 10 10 9 9 8 7 7 7 5 3 -1 -3 -4 -4 -4 -4 -3 1 -0 -4 -3 -2 -1 3 4 4 4 6
Wind_Speed
10 10 13 13 9 3 2 2 3 4 4 5 9 11 13 6 8 20 22 20 21 22 19 18 17 15 16 16 17 18 18 16 14 13 11 10 9 9 7 7 10 10 8 7
8 13 7 4 6 9 8 8 4 4 5 5 7 11 7 17 14 19 23 22 22 23 21 19 19 18 17 18 18 19 18 18 16 13 14 10 9 8 8 8 10 9 8 7
9 4 8 10 9 9 10 11 4 7 6 6 7 13 14 12 20 18 24 24 28 24 23 22 22 21 19 20 21 20 19 18 18 15 14 13 13 10 9 8 7 8 9 7
6 9 9 11 11 10 11 8 8 6 5 5 5 5 10 15 19 20 24 25 31 28 24 24 24 23 22 21 20 21 21 19 18 19 16 15 11 9 10 8 8 8 9 8
7 10 9 8 10 10 8 2 8 9 7 7 9 7 6 16 16 23 26 30 31 33 29 28 26 25 23 21 20 20 20 22 18 21 16 14 11 10 7 8 9 9 9 8
3 3 5 8 2 8 3 5 5 3 4 10 12 8 11 11 23 22 30 31 33 36 33 30 27 24 23 22 21 20 21 23 23 22 19 14 12 12 11 11 8 9 8 8
8 13 9 8 9 7 13 11 8 8 8 10 4 7 15 6 10 20 25 34 34 35 33 32 29 26 25 25 23 22 22 23 24 21 18 17 14 12 10 11 10 12 11 10
6 11 13 12 15 10 14 15 11 6 9 5 3 7 3 4 6 17 23 28 30 32 35 34 31 28 27 27 25 23 22 23 23 22 19 18 17 16 11 11 14 13 11 13
4 6 4 5 6 11 11 9 12 12 9 8 8 9 14 6 8 14 22 24 24 35 36 35 33 30 28 27 26 24 22 22 23 22 20 19 19 17 12 13 12 11 13 11
2 7 3 8 6 8 11 5 8 9 8 13 10 5 3 13 10 9 17 22 20 27 33 35 34 31 28 27 26 23 22 22 22 21 19 18 17 17 16 14 13 12 12 12
5 5 7 7 12 11 9 11 9 9 9 8 8 2 5 11 12 8 12 18 19 22 28 30 32 31 29 26 26 24 22 21 21 21 19 18 17 15 15 14 14 15 14 14
4 6 9 11 7 5 13 14 12 10 16 12 12 10 5 9 12 4 4 9 18 22 24 27 26 27 27 27 26 24 23 21 21 21 21 19 19 18 15 17 14 13 14 12
2 8 8 13 11 9 8 7 9 10 7 9 15 5 7 10 10 4 7 7 9 15 17 27 28 22 23 31 25 24 23 23 20 20 20 21 20 21 18 17 16 15 13 13
4 13 13 13 9 1 6 4 5 10 10 11 15 18 3 10 11 8 5 7 13 19 23 30 30 25 25 25 29 22 21 21 21 20 20 21 21 20 20 17 17 15 18 17
6 12 13 11 10 9 11 5 4 7 6 7 13 10 10 7 6 13 6 10 12 18 22 23 29 26 31 28 28 21 19 19 21 22 20 21 23 22 21 19 19 16 16 15
6 8 7 12 11 12 11 9 13 1 1 6 7 11 7 9 7 8 3 4 11 14 17 22 23 29 29 27 32 30 16 18 21 23 24 21 24 26 26 22 21 19 19 18
5 7 7 13 7 14 16 17 13 9 6 3 8 12 9 7 7 7 4 1 3 4 6 8 13 22 23 23 30 28 23 12 12 15 20 21 21 24 27 27 25 24 22 22
8 7 6 10 2 12 13 2 11 14 12 8 11 7 6 3 1 7 9 5 5 6 7 7 8 10 20 20 23 25 16 10 9 10 13 22 23 24 23 27 28 27 22 20
7 9 7 5 8 12 13 9 9 10 15 9 11 3 4 5 8 11 13 9 3 4 8 13 8 13 16 15 21 23 13 10 11 14 17 19 24 26 29 30 32 30 26 23
6 6 8 11 6 8 4 5 2 5 10 11 16 10 13 8 6 5 9 8 6 8 6 5 8 10 12 19 19 18 16 15 17 12 15 21 20 21 23 25 20 27 23 19
9 8 11 9 6 7 3 5 4 8 4 3 7 10 13 5 11 11 10 8 7 8 6 7 8 7 5 8 18 19 21 21 21 15 16 15 13 7 15 16 8 9 12 17
7 5 4 5 3 8 5 6 6 5 3 1 1 9 20 20 15 14 11 9 9 10 10 10 10 9 7 8 15 20 23 22 20 15 12 12 10 4 10 9 2 6 2 8
3 3 2 3 2 2 1 10 3 6 3 2 7 12 19 21 17 14 13 9 8 10 12 13 15 17 15 11 9 11 13 15 12 12 11 12 11 9 7 7 4 7 3 1
5 4 4 3 4 3 3 5 4 2 4 11 17 21 18 17 15 10 10 8 8 9 10 13 17 18 18 19 19 19 17 14 10 9 9 10 11 10 8 7 7 8 7 11
5 8 3 5 3 1 2 3 6 9 15 20 19 16 17 18 16 16 13 12 11 11 11 11 14 15 17 18 20 19 18 17 17 16 14 13 10 8 7 5 3 4 5 6
9 4 5 5 3 1 8 8 8 11 16 17 19 21 18 19 19 17 15 13 14 14 13 13 15 17 18 18 19 19 19 18 17 15 15 16 15 14 13 11 7 5 5 4
Wind_Direction
189 208 210 200 220 11 246 231 279 110 158 214 232 238 194 192 229 220 200 195 199 194 188 188 184 182 178 179 177 175 175 179 173 174 173 175 182 177 177 170 168 157 159 159
184 223 173 131 208 221 223 229 196 109 162 235 212 244 233 207 218 232 210 188 210 194 188 193 193 190 189 186 189 184 184 189 185 189 178 186 186 176 185 184 181 182 170 175
234 132 134 200 194 221 231 254 234 300 175 225 270 243 212 220 213 220 223 202 204 203 198 197 198 198 194 195 194 197 194 199 198 189 197 192 192 187 179 181 189 199 188 188
229 139 199 212 230 235 243 214 255 214 226 285 208 297 196 194 204 212 209 204 208 207 206 202 201 201 200 199 197 201 206 206 206 198 200 204 199 200 201 197 192 194 193 194
141 194 197 214 230 220 269 248 239 226 250 291 208 260 271 182 205 206 212 207 204 204 210 207 204 205 203 200 198 199 202 206 194 201 195 200 203 217 216 197 212 209 203 205
264 181 241 251 181 240 123 199 197 219 257 254 260 226 279 188 225 211 212 213 212 205 207 207 209 205 203 201 198 196 197 202 198 196 204 204 212 211 208 220 218 210 232 224
186 211 204 232 219 200 205 203 207 216 212 252 92 247 257 271 241 224 205 207 210 207 205 205 207 205 202 199 198 197 199 199 203 207 205 211 215 215 224 223 227 228 219 219
244 182 195 192 236 211 214 236 251 236 258 228 130 250 269 6 288 208 200 209 211 211 208 206 204 206 206 200 197 199 202 203 203 207 210 216 221 221 224 221 231 232 235 236
207 220 125 199 205 238 175 235 266 292 258 281 250 242 262 310 253 215 199 200 216 217 215 206 203 205 205 203 199 201 204 206 206 207 213 215 217 215 216 224 231 242 245 241
70 272 139 152 194 210 270 8 213 225 265 259 244 234 307 338 336 227 211 204 220 214 207 206 200 201 205 204 201 199 205 208 206 206 208 213 218 225 225 238 239 226 233 243
317 268 135 179 208 242 179 229 230 303 230 278 252 82 25 333 319 251 209 217 205 197 203 202 199 196 201 203 201 199 202 206 207 207 210 211 216 222 231 232 238 243 240 248
33 300 283 267 113 301 278 281 265 228 225 236 278 220 102 358 343 247 205 196 200 199 196 204 201 197 198 200 200 202 201 205 210 210 210 215 217 223 226 231 234 240 239 240
9 271 273 244 188 196 231 210 266 289 289 178 267 297 73 24 16 314 236 165 199 191 187 200 196 195 201 195 197 202 202 206 209 210 214 216 219 227 227 226 225 231 233 234
254 262 259 278 342 34 263 198 258 260 252 243 233 264 176 32 338 324 263 198 184 197 204 206 210 211 220 220 212 209 209 210 209 212 216 218 220 223 228 225 224 226 239 241
254 255 258 258 271 267 202 331 308 281 295 281 280 318 346 351 328 304 290 209 206 207 200 208 218 216 232 224 219 212 216 215 213 215 219 226 228 228 229 225 223 225 231 236
226 267 276 263 248 241 240 186 262 247 270 257 289 279 51 322 335 276 232 215 223 223 222 212 209 213 219 226 226 218 220 221 225 231 238 241 241 241 240 237 236 230 234 239
263 275 245 261 264 244 235 248 232 250 251 321 335 349 335 306 338 357 12 150 237 218 195 196 202 200 216 220 217 213 217 219 231 241 240 238 244 239 244 242 238 239 244 258
262 240 283 276 173 268 266 5 278 248 241 274 293 324 311 46 38 35 28 76 99 127 141 149 181 193 207 205 204 198 218 240 245 238 231 239 242 237 239 237 236 233 242 251
238 274 277 258 266 257 262 219 217 227 236 250 284 256 190 169 139 54 52 47 82 126 154 174 187 207 182 197 213 219 220 241 240 234 234 244 257 255 253 250 232 241 245 241
226 238 264 267 275 277 52 57 195 249 250 220 203 211 188 201 232 96 40 49 33 87 99 133 161 160 180 194 194 202 209 213 229 217 251 258 255 248 244 247 241 248 235 233
217 234 240 252 255 273 74 128 161 215 59 336 212 180 176 73 61 88 60 63 59 72 78 81 94 123 199 189 188 195 200 204 210 216 240 238 246 272 265 236 229 273 270 255
249 212 245 276 255 259 116 161 236 20 3 322 175 154 109 109 103 92 84 76 73 72 76 77 83 90 122 149 191 193 199 201 204 218 213 225 240 259 142 67 193 254 184 68
241 282 277 270 357 42 272 263 310 328 324 146 136 141 131 119 109 108 97 85 76 82 86 90 85 85 81 96 128 166 183 197 197 209 234 244 232 196 183 185 138 122 113 141
190 187 261 274 119 290 272 243 248 158 113 121 126 137 148 133 131 117 108 114 102 88 85 93 97 93 91 93 96 100 104 109 125 148 154 176 170 154 147 162 179 188 212 243
45 166 217 245 229 268 142 143 136 131 129 129 129 134 134 128 122 125 129 125 114 100 90 93 93 97 103 105 104 101 98 99 101 105 111 111 120 136 146 155 165 217 181 188
191 167 235 47 108 333 121 118 122 131 139 138 132 130 128 128 126 126 122 117 110 101 101 102 102 102 99 98 98 99 100 99 101 97 94 97 94 93 93 95 98 74 55 61
Height
1516 1513 1511 1505 1506 1507 1513 1515 1518 1523 1529 1527 1524 1527 1536 1537 1538 1535 1535 1542 1544 1548 1553 1557 1560 1564 1566 1569 1571 1573 1577 1579 1582 1584 1588 1590 1591 1594 1595 1597 1596 1597 1599 1600
1515 1510 1501 1509 1512 1512 1511 1514 1516 1525 1529 1530 1526 1527 1526 1531 1534 1533 1532 1539 1541 1544 1548 1554 1558 1561 1565 1567 1570 1573 1576 1578 1581 1585 1587 1590 1592 1594 1596 1597 1597 1598 1599 1600
1504 1502 1510 1512 1512 1514 1511 1511 1512 1520 1527 1527 1525 1520 1520 1527 1530 1533 1531 1534 1538 1540 1544 1550 1554 1558 1562 1565 1568 1572 1574 1578 1580 1583 1586 1588 1590 1591 1594 1596 1598 1598 1599 1600
1504 1509 1512 1511 1511 1509 1513 1508 1512 1520 1525 1523 1522 1516 1510 1514 1523 1526 1528 1529 1533 1536 1541 1545 1550 1554 1558 1562 1565 1569 1572 1575 1578 1581 1585 1587 1590 1592 1594 1596 1596 1598 1599 1600
1503 1508 1510 1511 1508 1507 1509 1509 1509 1515 1519 1523 1521 1524 1491 1503 1516 1514 1518 1520 1526 1530 1535 1539 1544 1549 1554 1559 1562 1566 1569 1572 1576 1578 1583 1586 1589 1591 1592 1595 1595 1596 1597 1599
1502 1507 1507 1505 1508 1509 1509 1513 1514 1516 1521 1525 1501 1514 1490 1496 1498 1505 1514 1516 1519 1523 1529 1535 1540 1546 1551 1556 1559 1563 1566 1568 1572 1575 1580 1583 1587 1589 1591 1592 1595 1596 1597 1598
1503 1503 1503 1507 1507 1508 1511 1509 1516 1524 1520 1515 1502 1510 1492 1483 1487 1492 1500 1507 1513 1518 1524 1529 1535 1541 1546 1551 1556 1559 1562 1566 1569 1572 1577 1580 1583 1586 1588 1590 1592 1593 1595 1597
1502 1508 1499 1501 1501 1502 1506 1500 1503 1521 1506 1495 1505 1509 1483 1480 1482 1486 1495 1504 1508 1512 1517 1523 1530 1536 1542 1547 1551 1556 1559 1563 1566 1570 1574 1578 1581 1583 1586 1587 1589 1590 1591 1592
1502 1502 1496 1499 1499 1501 1499 1512 1492 1496 1488 1504 1489 1488 1477 1476 1480 1483 1489 1497 1502 1506 1512 1517 1524 1531 1538 1544 1547 1552 1556 1560 1564 1567 1570 1574 1578 1581 1585 1586 1586 1588 1588 1589
1499 1506 1493 1494 1501 1500 1499 1491 1504 1499 1522 1514 1487 1489 1488 1483 1481 1482 1487 1495 1501 1502 1507 1512 1519 1526 1533 1540 1544 1548 1553 1557 1561 1565 1568 1571 1574 1577 1579 1581 1583 1585 1586 1586
1499 1500 1498 1497 1497 1490 1498 1500 1497 1486 1487 1505 1507 1486 1479 1484 1482 1478 1483 1490 1496 1501 1505 1510 1516 1522 1529 1535 1541 1544 1549 1555 1559 1562 1566 1568 1571 1574 1576 1578 1579 1580 1582 1582
1501 1497 1500 1489 1486 1491 1488 1482 1479 1493 1501 1487 1482 1509 1484 1485 1481 1479 1483 1491 1495 1499 1503 1509 1515 1520 1525 1531 1537 1541 1545 1551 1555 1559 1562 1565 1567 1570 1572 1573 1576 1578 1579 1580
1502 1501 1506 1495 1485 1489 1488 1485 1487 1482 1483 1536 1501 1491 1481 1484 1484 1485 1485 1489 1492 1496 1501 1507 1511 1517 1521 1525 1533 1539 1542 1547 1552 1555 1558 1561 1564 1565 1568 1570 1572 1574 1575 1577
1509 1501 1501 1500 1493 1508 1494 1491 1489 1486 1487 1484 1483 1474 1473 1484 1488 1488 1488 1490 1493 1496 1497 1503 1507 1509 1516 1522 1528 1535 1539 1544 1548 1552 1555 1557 1559 1562 1563 1567 1568 1570 1571 1573
1503 1503 1495 1492 1490 1493 1496 1493 1491 1487 1486 1491 1473 1482 1475 1490 1494 1492 1489 1490 1493 1495 1497 1501 1502 1504 1512 1517 1523 1531 1536 1540 1544 1546 1551 1553 1556 1558 1560 1562 1565 1566 1567 1569
1499 1502 1496 1498 1489 1491 1492 1491 1497 1489 1487 1485 1482 1480 1485 1491 1493 1491 1486 1488 1491 1494 1495 1498 1501 1504 1509 1513 1518 1525 1532 1535 1538 1541 1545 1550 1552 1554 1556 1558 1559 1562 1563 1565
1499 1494 1499 1498 1486 1488 1492 1488 1487 1487 1483 1485 1488 1486 1486 1488 1493 1492 1487 1487 1488 1490 1494 1495 1500 1503 1505 1510 1515 1521 1527 1532 1534 1536 1540 1545 1547 1549 1552 1553 1555 1557 1559 1561
1497 1499 1496 1498 1502 1516 1486 1481 1485 1483 1480 1482 1484 1484 1490 1496 1496 1491 1491 1491 1492 1494 1496 1498 1498 1500 1503 1507 1511 1518 1525 1527 1529 1533 1535 1538 1543 1543 1546 1548 1550 1552 1554 1555
1495 1496 1495 1505 1507 1495 1487 1485 1489 1488 1483 1481 1486 1488 1494 1494 1497 1497 1494 1495 1495 1495 1496 1495 1494 1499 1502 1505 1509 1515 1520 1521 1527 1531 1534 1536 1539 1539 1540 1542 1543 1545 1546 1549
1494 1497 1499 1496 1514 1510 1488 1483 1486 1487 1490 1475 1484 1489 1494 1492 1484 1495 1496 1498 1500 1494 1497 1497 1498 1499 1500 1504 1509 1511 1515 1520 1526 1526 1530 1532 1533 1534 1534 1535 1531 1540 1538 1542
1491 1493 1493 1492 1500 1491 1482 1488 1490 1495 1489 1484 1485 1487 1491 1492 1494 1498 1499 1502 1503 1501 1500 1499 1499 1498 1501 1505 1508 1512 1515 1519 1523 1525 1527 1530 1531 1531 1531 1532 1534 1536 1538 1538
1490 1493 1491 1487 1498 1502 1486 1489 1490 1489 1486 1486 1485 1489 1491 1495 1500 1501 1504 1507 1507 1505 1505 1503 1501 1499 1503 1505 1508 1510 1514 1518 1520 1523 1525 1528 1528 1531 1532 1532 1533 1533 1534 1535
1495 1485 1491 1488 1486 1488 1489 1487 1488 1489 1489 1489 1489 1492 1496 1498 1500 1503 1506 1511 1512 1511 1509 1508 1506 1505 1506 1507 1508 1509 1513 1516 1519 1521 1523 1523 1526 1529 1530 1532 1534 1533 1537 1538
1485 1489 1484 1487 1483 1485 1486 1487 1488 1489 1489 1490 1491 1493 1496 1496 1496 1502 1509 1514 1515 1516 1516 1512 1510 1512 1513 1512 1512 1513 1515 1516 1518 1520 1522 1525 1528 1529 1532 1533 1534 1536 1534 1539
1479 1486 1482 1481 1482 1484 1485 1487 1488 1490 1492 1493 1495 1497 1498 1499 1503 1508 1513 1517 1518 1519 1518 1518 1517 1520 1520 1521 1520 1520 1520 1521 1523 1524 1526 1528 1530 1531 1532 1534 1536 1536 1538 1539
1479 1476 1477 1475 1480 1482 1485 1488 1489 1491 1494 1496 1498 1500 1505 1507 1509 1512 1516 1518 1518 1519 1521 1523 1523 1523 1522 1524 1523 1524 1525 1526 1528 1530 1531 1532 1533 1534 1534 1534 1536 1538 1540 1541